Wind_Speed
42 48 52 51 48 47 44 41 41 37 35 33 32 31 30 30 32 33 33 31 32 33 33 35 38 38 36 30 24 14 8 23 30 23 18 19 16 17 16 16 17 23 27 13 4
40 44 49 52 52 50 49 46 44 42 40 38 37 35 34 34 34 34 33 34 36 35 37 37 38 38 35 29 26 20 19 20 17 17 16 15 15 15 16 18 20 23 26 9 3
41 40 45 50 52 53 50 50 48 47 44 43 42 39 38 37 38 37 37 36 34 35 37 40 39 38 30 25 18 25 15 23 17 14 13 14 14 10 9 19 19 19 22 8 1
43 41 41 46 51 53 52 53 52 50 48 45 43 43 41 41 42 41 39 38 37 37 41 40 39 33 28 21 19 10 24 18 13 13 14 14 14 12 10 14 13 15 18 7 3
46 41 40 43 48 51 54 54 52 52 51 50 48 46 46 46 45 45 43 41 40 43 42 39 34 27 24 19 19 15 20 15 10 11 15 16 17 15 12 12 10 11 15 8 2
46 43 41 41 43 48 52 54 53 53 52 51 49 49 49 48 48 45 43 43 44 41 38 33 28 25 21 20 19 16 17 12 10 11 14 16 19 17 17 13 10 8 14 10 3
47 46 44 41 40 42 44 48 50 52 51 50 50 50 49 47 44 45 44 43 43 38 32 26 24 22 19 18 16 17 12 13 14 12 13 15 19 19 18 14 13 5 9 9 4
49 48 47 46 43 42 41 43 44 46 47 46 46 46 47 47 46 44 42 41 39 32 26 25 23 19 19 16 11 10 22 9 16 11 12 13 19 19 17 14 12 4 5 7 4
48 49 48 48 46 44 43 42 42 41 42 42 43 44 44 43 42 40 38 37 35 31 25 25 22 19 16 13 3 9 26 23 12 8 8 10 6 21 16 17 9 8 4 5 10
48 48 48 48 47 46 45 44 42 42 41 41 42 42 41 41 40 38 36 34 33 30 24 25 22 19 16 13 9 18 20 16 7 7 9 9 9 16 15 16 7 13 9 5 4
49 50 50 50 49 48 47 45 44 44 44 42 42 41 39 39 38 36 36 34 31 29 25 24 21 20 15 14 11 10 12 9 4 7 10 11 13 13 21 20 10 8 16 12 10
49 49 49 50 50 50 49 47 47 47 46 44 43 42 41 38 39 35 34 32 29 28 26 24 20 20 17 13 11 10 9 7 2 6 7 11 13 14 19 26 26 17 13 16 15
49 49 49 50 50 50 50 50 49 49 48 45 44 41 40 38 35 36 33 31 27 26 26 23 19 19 17 14 11 11 10 8 2 4 6 12 13 17 21 28 28 28 17 16 14
52 52 51 51 51 50 49 50 50 50 48 46 41 37 37 36 34 33 33 29 27 25 25 21 18 19 17 14 13 11 12 9 4 3 2 14 23 10 26 17 32 31 23 17 18
58 56 56 55 54 53 53 53 53 51 51 43 38 41 39 36 33 33 32 28 28 24 25 22 18 17 16 15 13 13 14 11 6 1 3 3 9 5 15 22 27 21 23 22 20
64 63 62 61 59 58 57 56 56 55 55 47 42 47 43 43 38 37 34 33 31 27 26 23 20 17 18 17 15 16 15 13 7 4 4 8 11 15 19 24 19 24 30 23 21
73 72 70 68 67 65 64 64 62 59 59 54 52 52 50 48 44 41 41 38 34 32 30 25 24 19 17 17 17 18 17 13 11 8 22 26 23 21 22 30 33 30 31 26 23
71 72 75 75 75 73 72 70 66 69 66 62 55 57 58 54 51 47 44 42 40 37 35 31 27 22 19 20 20 19 18 16 18 22 24 12 14 17 22 29 35 33 27 23 23
71 72 72 70 70 70 69 68 70 71 67 61 59 62 62 58 54 51 49 48 47 43 40 36 34 26 24 22 23 22 19 19 21 21 26 23 14 18 32 13 19 21 22 19 19
59 63 67 69 68 68 67 68 70 68 61 61 64 63 60 60 56 54 53 53 52 50 48 45 38 33 31 26 26 27 21 21 23 22 22 17 17 22 23 15 29 29 25 22 19
50 56 60 61 63 65 66 64 64 63 60 62 63 62 60 63 60 58 57 56 54 53 52 50 45 42 35 31 35 31 26 25 23 20 25 24 31 34 26 26 23 26 27 22 20
48 47 50 56 60 60 62 65 64 61 59 60 60 57 59 63 60 59 61 60 57 55 54 53 50 49 42 37 38 32 32 32 27 19 23 23 27 29 31 33 34 24 29 23 22
43 46 50 49 53 57 61 62 63 63 62 61 59 58 60 59 57 56 60 60 60 56 55 56 52 53 50 45 43 36 39 37 30 24 27 21 16 28 25 31 36 30 30 26 24
38 43 48 51 50 51 56 59 59 61 60 58 57 57 57 57 58 57 61 62 58 55 57 57 56 54 52 52 51 43 41 37 34 30 31 28 24 48 35 32 33 30 30 27 25
36 38 42 50 53 52 50 52 55 58 58 59 58 57 56 58 59 57 60 59 54 57 57 57 57 59 56 54 52 47 47 44 39 37 35 35 37 41 38 40 27 28 28 28 26
34 37 44 48 50 50 52 51 52 54 56 57 56 57 57 57 56 58 57 58 56 55 54 57 56 60 59 58 54 52 50 46 43 41 41 42 42 41 42 43 34 26 33 28 29
30 34 41 45 50 51 50 50 48 48 50 52 58 56 56 55 53 56 54 52 53 46 47 51 56 59 58 61 60 53 52 52 48 46 47 47 47 50 42 40 41 31 33 32 32
Wind_Direction
229 227 227 225 227 228 231 234 239 242 245 250 254 261 265 270 278 284 289 295 301 306 314 318 319 321 324 325 324 331 271 260 284 295 303 315 326 332 332 340 345 349 351 357 60
231 230 231 230 231 232 232 235 238 242 247 252 256 261 266 272 278 283 285 293 300 304 309 314 316 318 320 322 321 318 296 293 292 294 295 317 337 339 348 342 348 350 350 1 86
231 233 234 234 236 235 234 238 240 243 247 251 256 261 266 271 275 280 286 295 303 305 307 309 312 314 319 326 322 330 317 314 299 293 305 319 338 342 281 330 340 347 353 13 140
232 235 235 236 237 238 240 241 242 244 248 250 255 260 264 269 273 280 288 292 299 303 304 305 309 309 316 315 306 333 299 304 300 302 313 321 333 331 306 326 338 351 359 37 45
234 237 238 239 238 241 242 244 246 248 250 253 255 258 264 270 273 280 285 288 293 298 302 304 304 306 310 317 313 303 296 305 295 304 311 324 334 334 331 333 335 350 2 19 57
235 237 240 241 240 240 241 244 246 249 253 255 256 259 266 270 274 279 282 285 289 294 297 299 304 303 307 319 323 320 298 294 293 306 312 329 331 335 325 321 328 335 2 8 20
236 237 240 243 243 242 242 243 245 248 252 255 258 262 266 268 271 275 279 283 286 290 294 297 299 298 306 311 325 346 323 352 311 306 317 334 335 331 328 329 333 324 2 17 10
239 241 242 243 245 246 244 243 244 246 249 253 256 259 263 267 270 272 276 279 283 289 293 293 294 299 305 322 341 1 315 270 269 306 329 354 334 333 325 320 322 254 20 43 68
239 241 244 246 247 247 248 247 247 248 249 252 255 258 261 264 268 272 276 279 283 287 287 287 290 293 301 309 245 165 260 289 285 325 339 29 248 328 318 313 301 223 225 85 67
241 242 245 247 248 249 250 250 251 252 253 255 257 260 262 265 269 272 275 278 280 283 282 282 283 287 295 296 275 237 265 267 296 334 337 347 330 321 325 316 278 220 221 241 325
243 244 246 248 249 250 251 253 255 255 255 257 259 261 263 266 270 274 276 278 279 279 276 275 276 280 285 290 285 271 270 284 326 351 350 352 351 352 357 353 323 254 224 228 247
242 244 246 248 250 251 253 254 256 256 257 257 260 262 264 266 269 270 273 275 276 273 270 268 266 270 275 278 284 268 255 262 41 13 349 34 38 314 342 1 347 320 238 225 236
241 243 245 246 248 250 252 254 255 255 257 258 260 261 265 267 268 270 270 270 270 267 267 266 262 259 262 265 264 260 239 241 235 293 6 18 347 1 340 324 336 330 310 246 247
241 242 244 246 247 248 250 251 253 254 256 256 259 264 263 265 263 267 265 266 265 263 263 265 260 254 258 255 251 254 242 236 233 293 16 41 21 342 318 286 320 312 306 300 256
243 243 244 245 247 248 250 251 252 253 254 255 258 254 256 259 262 259 264 265 263 262 265 263 261 257 252 246 246 249 241 229 210 169 167 307 215 332 257 268 284 302 303 300 296
245 245 247 247 248 249 249 251 252 253 255 254 256 254 255 256 257 260 262 262 266 265 264 262 259 254 254 248 241 239 238 229 191 129 76 320 273 259 236 233 288 295 307 294 293
247 248 249 249 250 250 250 252 253 255 255 253 253 258 257 256 254 255 259 261 262 265 263 262 259 254 252 252 243 236 236 226 195 180 260 263 254 287 249 238 243 277 294 292 294
248 249 251 251 251 252 251 253 254 253 253 255 255 253 255 255 254 252 254 258 260 260 262 261 260 254 253 251 248 241 238 226 219 192 216 215 248 241 240 260 267 274 288 291 287
248 249 249 249 250 251 252 253 252 252 253 256 256 254 253 253 252 251 252 253 255 258 259 260 258 254 255 253 253 243 241 234 226 213 228 217 248 261 257 290 336 292 281 288 285
247 247 249 249 249 250 251 251 251 253 253 253 250 251 252 251 252 251 248 249 251 253 256 258 257 254 252 249 252 250 241 240 237 229 232 214 170 162 230 206 183 266 286 287 296
246 246 247 248 247 248 248 248 250 250 250 250 251 251 251 250 249 248 246 245 247 248 251 253 255 256 252 252 249 250 249 243 240 239 238 228 217 217 250 254 237 267 277 281 290
248 244 244 245 245 245 245 245 247 249 248 248 248 248 247 248 247 248 246 245 244 245 246 249 251 253 252 249 251 248 251 251 244 238 252 247 259 247 237 242 256 276 280 279 284
253 245 243 241 243 244 244 245 244 246 247 248 248 246 246 247 247 245 247 245 245 243 245 246 248 248 251 250 251 245 247 248 249 240 242 245 244 258 235 245 257 266 271 275 279
262 251 244 241 240 242 242 242 243 243 244 245 244 244 245 246 245 244 244 243 243 241 242 243 243 246 248 248 247 244 248 250 248 248 248 244 234 256 268 251 261 263 268 271 275
266 256 246 240 238 238 240 241 242 242 242 243 243 244 244 244 245 245 245 245 241 243 241 242 240 243 243 246 248 247 249 248 248 248 250 251 250 259 261 265 251 266 265 273 275
273 252 240 237 236 235 237 238 239 241 240 241 242 242 242 242 244 244 243 244 243 242 242 242 241 242 242 244 246 246 247 250 250 250 249 249 253 253 254 267 265 265 275 275 278
277 255 241 234 231 232 235 238 241 242 241 241 241 244 246 245 246 245 243 245 249 238 239 240 242 244 245 245 243 241 247 249 248 248 251 253 252 254 260 267 273 270 274 279 279
Height
10975 10980 10984 10988 10993 10996 10999 11001 11003 11006 11007 11010 11011 11012 11013 11013 11013 11014 11015 11016 11018 11017 11016 11013 11010 11005 11005 11005 11004 11006 10996 10994 10987 10984 10982 10977 10976 10972 10969 10965 10963 10959 10955 10951 10949
10970 10974 10978 10983 10987 10991 10994 10996 10999 11001 11004 11006 11007 11008 11010 11010 11010 11010 11012 11013 11014 11013 11012 11010 11006 11002 11001 10999 10996 10996 10995 10991 10986 10981 10981 10978 10975 10973 10970 10967 10962 10959 10955 10952 10951
10964 10968 10971 10975 10980 10984 10989 10992 10994 10997 10999 11001 11003 11005 11006 11006 11007 11006 11008 11010 11011 11010 11007 11005 11002 10999 10999 10996 10993 10990 10985 10984 10981 10979 10979 10977 10975 10971 10969 10969 10963 10961 10956 10953 10953
10958 10962 10964 10968 10972 10977 10982 10985 10988 10991 10994 10996 10998 11000 11002 11001 11003 11002 11003 11005 11007 11006 11003 11001 10999 10994 10994 10992 10992 10995 10985 10981 10977 10976 10975 10976 10975 10970 10971 10968 10964 10962 10958 10954 10954
10952 10955 10958 10961 10965 10969 10974 10978 10981 10985 10988 10991 10993 10995 10996 10997 10997 10997 10998 11000 11002 11001 10998 10995 10994 10992 10989 10992 10986 10984 10981 10977 10977 10974 10973 10974 10973 10971 10968 10967 10966 10963 10959 10956 10955
10945 10949 10952 10955 10958 10962 10966 10971 10974 10978 10981 10984 10987 10989 10990 10991 10992 10991 10993 10995 10996 10996 10994 10991 10989 10988 10986 10984 10981 10979 10978 10976 10976 10974 10972 10972 10972 10971 10969 10966 10964 10962 10959 10958 10957
10938 10943 10946 10949 10952 10955 10959 10963 10967 10971 10974 10978 10981 10983 10984 10985 10986 10986 10988 10989 10990 10991 10990 10987 10984 10983 10983 10982 10981 10983 10981 10978 10974 10973 10973 10974 10975 10972 10970 10966 10964 10963 10961 10960 10958
10932 10936 10939 10943 10946 10949 10952 10956 10959 10963 10967 10970 10973 10975 10977 10979 10980 10981 10982 10983 10984 10986 10985 10982 10980 10980 10979 10978 10978 10976 10975 10978 10973 10973 10976 10977 10971 10969 10970 10968 10965 10964 10963 10961 10960
10924 10928 10931 10935 10938 10942 10945 10949 10953 10957 10960 10964 10966 10967 10969 10971 10973 10974 10975 10976 10977 10979 10979 10977 10975 10975 10976 10975 10975 10978 10973 10974 10973 10973 10977 10978 10966 10969 10969 10967 10964 10964 10963 10963 10962
10916 10920 10924 10927 10931 10934 10937 10942 10945 10949 10953 10956 10958 10960 10963 10964 10966 10967 10968 10971 10972 10972 10973 10972 10971 10970 10972 10972 10972 10972 10971 10971 10971 10973 10977 10977 10975 10970 10970 10966 10962 10962 10963 10962 10963
10908 10912 10915 10918 10922 10926 10930 10934 10938 10941 10944 10949 10950 10953 10956 10957 10958 10960 10962 10964 10966 10966 10967 10966 10966 10966 10968 10967 10968 10967 10967 10968 10970 10974 10973 10974 10971 10971 10968 10964 10961 10959 10960 10961 10962
10899 10903 10906 10909 10912 10917 10920 10925 10928 10931 10937 10941 10943 10945 10948 10950 10950 10954 10955 10958 10960 10959 10960 10961 10962 10962 10963 10964 10964 10964 10965 10965 10968 10969 10966 10968 10967 10991 10964 10962 10963 10961 10959 10960 10960
10890 10894 10897 10900 10904 10907 10912 10915 10918 10922 10927 10933 10935 10938 10940 10943 10945 10945 10948 10950 10953 10954 10954 10955 10957 10958 10960 10961 10961 10961 10962 10965 10967 10965 10965 10966 10964 10963 10963 10958 10959 10960 10960 10958 10959
10881 10884 10888 10891 10894 10899 10903 10905 10908 10912 10917 10923 10928 10931 10932 10935 10937 10939 10940 10944 10946 10947 10948 10950 10952 10954 10955 10957 10958 10959 10960 10961 10963 10964 10963 10964 10963 10966 10965 10961 10954 10957 10958 10957 10956
10870 10874 10877 10880 10884 10889 10892 10896 10899 10902 10906 10918 10922 10920 10925 10928 10932 10932 10934 10936 10938 10942 10942 10945 10947 10949 10950 10952 10954 10955 10957 10960 10961 10963 10964 10965 10965 10967 10962 10958 10957 10955 10956 10956 10955
10858 10862 10865 10870 10874 10879 10882 10885 10889 10893 10894 10907 10913 10910 10916 10919 10924 10925 10928 10930 10932 10935 10937 10940 10942 10944 10946 10947 10951 10951 10954 10957 10961 10964 10963 10962 10967 10962 10962 10959 10957 10954 10955 10953 10953
10843 10849 10852 10857 10861 10866 10869 10873 10878 10884 10887 10894 10899 10901 10905 10909 10914 10918 10919 10923 10926 10928 10930 10934 10936 10939 10941 10943 10945 10948 10950 10954 10959 10963 10962 10961 10961 10961 10959 10956 10953 10951 10953 10949 10949
10825 10832 10835 10841 10845 10850 10855 10860 10868 10865 10872 10880 10892 10891 10891 10897 10903 10909 10912 10916 10918 10920 10922 10927 10930 10933 10936 10937 10939 10942 10945 10949 10951 10952 10949 10955 10958 10959 10955 10957 10957 10951 10948 10946 10946
10809 10815 10818 10823 10828 10833 10839 10846 10847 10849 10859 10870 10876 10876 10879 10884 10891 10897 10902 10906 10908 10912 10915 10918 10921 10927 10929 10931 10933 10936 10939 10942 10944 10947 10944 10949 10950 10950 10948 10954 10946 10940 10944 10943 10941
10791 10797 10801 10806 10811 10818 10824 10827 10828 10837 10850 10852 10852 10858 10866 10870 10877 10884 10890 10893 10897 10901 10904 10908 10913 10917 10921 10925 10926 10928 10933 10935 10936 10940 10941 10941 10943 10947 10947 10953 10945 10939 10942 10941 10938
10776 10782 10784 10789 10795 10801 10806 10809 10815 10823 10831 10834 10838 10845 10852 10854 10862 10869 10875 10879 10885 10890 10894 10898 10904 10907 10913 10917 10916 10922 10926 10928 10931 10935 10934 10937 10938 10938 10942 10938 10939 10942 10939 10937 10937
10763 10768 10769 10773 10779 10784 10789 10795 10802 10809 10815 10817 10823 10831 10834 10836 10848 10855 10859 10865 10871 10877 10884 10887 10892 10897 10902 10908 10909 10915 10918 10919 10923 10929 10927 10930 10928 10936 10933 10931 10928 10935 10933 10933 10933
10749 10752 10755 10758 10762 10767 10773 10779 10787 10792 10799 10802 10810 10815 10819 10825 10834 10841 10843 10850 10856 10867 10872 10876 10883 10886 10891 10897 10901 10906 10906 10910 10917 10922 10922 10925 10922 10917 10926 10925 10924 10928 10927 10927 10927
10736 10737 10740 10744 10749 10753 10757 10763 10771 10777 10783 10788 10795 10801 10806 10812 10818 10824 10826 10831 10844 10854 10859 10863 10870 10875 10882 10884 10887 10896 10899 10903 10907 10912 10913 10917 10917 10905 10916 10914 10915 10918 10919 10919 10920
10721 10724 10727 10728 10731 10737 10744 10750 10756 10762 10770 10774 10781 10787 10792 10796 10802 10809 10812 10819 10833 10837 10845 10850 10856 10860 10867 10871 10878 10886 10889 10893 10899 10903 10906 10908 10909 10904 10904 10904 10910 10912 10912 10912 10913
10706 10707 10707 10711 10719 10725 10729 10734 10740 10747 10755 10760 10768 10771 10776 10783 10788 10791 10801 10806 10813 10823 10833 10838 10845 10846 10853 10859 10866 10872 10878 10884 10889 10892 10896 10897 10899 10900 10900 10893 10902 10908 10903 10906 10906
10689 10690 10693 10698 10704 10709 10716 10722 10729 10734 10743 10750 10750 10759 10765 10770 10776 10778 10787 10793 10803 10815 10821 10827 10829 10834 10844 10847 10850 10858 10869 10870 10877 10881 10883 10886 10887 10884 10889 10890 10891 10897 10898 10899 10900